Precipitable_Water
0.60 0.60 0.60 0.60 0.58 0.56 0.54 0.52 0.52 0.52 0.54 0.52 0.52 0.50 0.50 0.48 0.46 0.46 0.46 0.48 0.46 0.44 0.44 0.42 0.42 0.44 0.44 0.46 0.44 0.42 0.40 0.40 0.40 0.40 0.38 0.36 0.38 0.38 0.40 0.40 0.40 0.38 0.38 0.38 0.38 0.38 0.38 0.38 0.38 0.38 0.38 0.36 0.36 0.34 0.34 0.34 0.34 0.34 0.34 0.34 0.34 0.32 0.32 0.30 0.30 0.28 0.28 0.26 0.26
0.62 0.60 0.60 0.60 0.60 0.58 0.58 0.54 0.54 0.54 0.54 0.52 0.52 0.50 0.50 0.48 0.46 0.44 0.46 0.46 0.46 0.46 0.46 0.44 0.44 0.44 0.44 0.46 0.44 0.42 0.42 0.40 0.40 0.40 0.38 0.38 0.38 0.38 0.40 0.40 0.40 0.40 0.38 0.38 0.38 0.40 0.40 0.40 0.40 0.40 0.38 0.38 0.36 0.36 0.34 0.36 0.36 0.36 0.34 0.34 0.34 0.32 0.30 0.30 0.28 0.28 0.28 0.26 0.26
0.62 0.62 0.62 0.62 0.60 0.60 0.58 0.56 0.54 0.54 0.52 0.52 0.52 0.52 0.50 0.48 0.46 0.44 0.44 0.46 0.46 0.46 0.46 0.44 0.44 0.44 0.44 0.44 0.44 0.44 0.42 0.40 0.40 0.40 0.40 0.38 0.38 0.40 0.40 0.40 0.40 0.38 0.38 0.38 0.38 0.40 0.40 0.40 0.40 0.40 0.40 0.38 0.38 0.36 0.34 0.36 0.36 0.34 0.34 0.34 0.32 0.32 0.30 0.30 0.30 0.30 0.28 0.28 0.28
0.64 0.64 0.64 0.62 0.60 0.58 0.56 0.52 0.52 0.52 0.52 0.52 0.50 0.50 0.50 0.50 0.46 0.44 0.44 0.46 0.46 0.48 0.48 0.44 0.42 0.42 0.42 0.42 0.40 0.40 0.42 0.42 0.42 0.42 0.40 0.40 0.40 0.40 0.40 0.40 0.40 0.38 0.38 0.38 0.38 0.38 0.40 0.40 0.40 0.40 0.40 0.38 0.38 0.36 0.36 0.34 0.34 0.34 0.34 0.34 0.34 0.34 0.32 0.32 0.32 0.32 0.32 0.32 0.32
0.66 0.66 0.64 0.60 0.58 0.56 0.54 0.52 0.50 0.50 0.50 0.50 0.52 0.52 0.50 0.50 0.48 0.46 0.46 0.46 0.46 0.48 0.48 0.44 0.42 0.40 0.38 0.38 0.38 0.40 0.42 0.42 0.42 0.42 0.42 0.42 0.40 0.40 0.40 0.40 0.38 0.38 0.38 0.38 0.38 0.38 0.40 0.40 0.40 0.40 0.40 0.38 0.38 0.36 0.36 0.36 0.36 0.34 0.34 0.36 0.36 0.36 0.36 0.34 0.34 0.34 0.34 0.34 0.32
0.68 0.68 0.64 0.60 0.58 0.56 0.54 0.52 0.50 0.50 0.52 0.52 0.52 0.52 0.50 0.50 0.48 0.48 0.46 0.46 0.46 0.46 0.46 0.44 0.42 0.40 0.40 0.40 0.38 0.40 0.40 0.42 0.42 0.42 0.42 0.40 0.40 0.40 0.40 0.38 0.38 0.38 0.38 0.38 0.38 0.38 0.38 0.40 0.40 0.38 0.38 0.36 0.36 0.36 0.38 0.38 0.38 0.36 0.36 0.36 0.36 0.36 0.34 0.34 0.34 0.34 0.34 0.32 0.30
0.73 0.69 0.66 0.62 0.60 0.58 0.54 0.52 0.52 0.52 0.52 0.54 0.52 0.52 0.50 0.48 0.48 0.46 0.46 0.46 0.44 0.46 0.46 0.44 0.42 0.42 0.42 0.40 0.40 0.40 0.40 0.40 0.40 0.40 0.40 0.40 0.40 0.38 0.38 0.38 0.38 0.38 0.38 0.38 0.38 0.38 0.38 0.38 0.36 0.36 0.36 0.36 0.36 0.36 0.38 0.38 0.38 0.36 0.34 0.32 0.32 0.32 0.32 0.32 0.32 0.32 0.32 0.30 0.30
0.73 0.69 0.66 0.62 0.58 0.56 0.54 0.52 0.52 0.52 0.52 0.52 0.52 0.52 0.50 0.48 0.44 0.44 0.44 0.44 0.44 0.44 0.42 0.42 0.42 0.42 0.42 0.40 0.40 0.40 0.40 0.40 0.40 0.40 0.40 0.40 0.38 0.38 0.36 0.36 0.36 0.38 0.38 0.38 0.38 0.38 0.38 0.36 0.36 0.36 0.36 0.36 0.36 0.36 0.36 0.36 0.36 0.34 0.32 0.30 0.32 0.32 0.32 0.32 0.32 0.32 0.32 0.30 0.30
0.66 0.64 0.62 0.58 0.56 0.54 0.52 0.50 0.50 0.50 0.52 0.52 0.52 0.52 0.52 0.48 0.44 0.42 0.42 0.42 0.42 0.42 0.40 0.40 0.40 0.42 0.40 0.40 0.40 0.40 0.40 0.40 0.40 0.40 0.38 0.38 0.38 0.36 0.36 0.38 0.38 0.38 0.38 0.38 0.38 0.40 0.40 0.38 0.38 0.38 0.38 0.36 0.36 0.36 0.34 0.34 0.32 0.32 0.30 0.30 0.32 0.32 0.32 0.32 0.32 0.32 0.32 0.30 0.28
0.64 0.62 0.60 0.56 0.54 0.52 0.52 0.50 0.50 0.52 0.52 0.52 0.52 0.52 0.52 0.50 0.48 0.46 0.44 0.42 0.40 0.40 0.38 0.40 0.40 0.42 0.40 0.40 0.40 0.40 0.40 0.40 0.40 0.40 0.38 0.38 0.36 0.36 0.36 0.38 0.38 0.38 0.38 0.38 0.40 0.40 0.40 0.38 0.38 0.38 0.36 0.36 0.36 0.34 0.34 0.32 0.32 0.30 0.30 0.32 0.32 0.32 0.32 0.32 0.32 0.30 0.30 0.28 0.28
0.64 0.60 0.56 0.54 0.54 0.52 0.52 0.52 0.52 0.54 0.54 0.54 0.54 0.54 0.52 0.52 0.50 0.48 0.46 0.42 0.40 0.38 0.40 0.40 0.42 0.42 0.42 0.40 0.40 0.40 0.40 0.40 0.40 0.38 0.38 0.36 0.36 0.36 0.38 0.38 0.38 0.38 0.40 0.42 0.42 0.42 0.40 0.38 0.36 0.36 0.34 0.34 0.34 0.34 0.32 0.32 0.32 0.32 0.32 0.32 0.32 0.30 0.30 0.30 0.30 0.28 0.28 0.26 0.26
0.64 0.60 0.56 0.56 0.54 0.52 0.52 0.52 0.52 0.52 0.52 0.52 0.52 0.50 0.48 0.48 0.48 0.48 0.46 0.44 0.40 0.40 0.40 0.40 0.42 0.42 0.42 0.42 0.42 0.40 0.40 0.40 0.40 0.38 0.38 0.36 0.36 0.36 0.38 0.38 0.40 0.40 0.40 0.42 0.40 0.40 0.38 0.36 0.34 0.34 0.32 0.32 0.32 0.32 0.32 0.32 0.32 0.32 0.32 0.32 0.30 0.30 0.28 0.28 0.28 0.26 0.26 0.26 0.26
0.62 0.58 0.56 0.56 0.54 0.54 0.52 0.52 0.52 0.50 0.50 0.50 0.50 0.48 0.46 0.46 0.44 0.46 0.46 0.42 0.40 0.40 0.40 0.40 0.42 0.42 0.42 0.42 0.42 0.42 0.42 0.42 0.40 0.38 0.38 0.36 0.36 0.38 0.38 0.40 0.40 0.40 0.40 0.38 0.38 0.36 0.36 0.34 0.34 0.32 0.32 0.32 0.32 0.32 0.32 0.32 0.32 0.32 0.30 0.30 0.28 0.28 0.26 0.26 0.26 0.24 0.24 0.26 0.26
0.60 0.58 0.56 0.56 0.54 0.54 0.52 0.52 0.52 0.50 0.48 0.48 0.48 0.46 0.46 0.46 0.44 0.44 0.44 0.42 0.42 0.40 0.38 0.38 0.40 0.40 0.42 0.42 0.42 0.42 0.42 0.42 0.42 0.40 0.38 0.38 0.38 0.40 0.40 0.42 0.42 0.40 0.38 0.36 0.36 0.36 0.34 0.34 0.32 0.32 0.30 0.30 0.30 0.32 0.32 0.32 0.32 0.30 0.28 0.28 0.26 0.26 0.24 0.24 0.24 0.24 0.24 0.24 0.26
0.60 0.60 0.58 0.56 0.56 0.54 0.52 0.52 0.50 0.48 0.46 0.46 0.46 0.46 0.46 0.44 0.44 0.44 0.44 0.44 0.42 0.40 0.38 0.38 0.38 0.40 0.42 0.42 0.42 0.42 0.42 0.42 0.42 0.40 0.40 0.40 0.40 0.42 0.42 0.40 0.38 0.38 0.36 0.36 0.36 0.34 0.34 0.32 0.32 0.32 0.30 0.30 0.30 0.30 0.32 0.32 0.30 0.30 0.28 0.26 0.24 0.24 0.22 0.22 0.22 0.22 0.22 0.24 0.24
0.60 0.60 0.58 0.56 0.54 0.54 0.52 0.50 0.50 0.48 0.46 0.46 0.44 0.44 0.44 0.44 0.44 0.44 0.44 0.44 0.42 0.40 0.40 0.38 0.38 0.40 0.40 0.40 0.40 0.40 0.40 0.40 0.40 0.40 0.40 0.40 0.40 0.40 0.40 0.38 0.38 0.36 0.36 0.36 0.34 0.34 0.34 0.32 0.32 0.32 0.30 0.30 0.30 0.32 0.32 0.32 0.30 0.28 0.28 0.24 0.22 0.22 0.22 0.22 0.22 0.22 0.22 0.22 0.22
0.60 0.60 0.58 0.56 0.54 0.52 0.52 0.50 0.50 0.48 0.46 0.46 0.44 0.44 0.42 0.42 0.42 0.42 0.42 0.42 0.42 0.42 0.40 0.40 0.40 0.40 0.40 0.40 0.40 0.40 0.40 0.40 0.40 0.40 0.40 0.40 0.40 0.40 0.38 0.38 0.38 0.38 0.36 0.36 0.34 0.34 0.32 0.32 0.32 0.30 0.30 0.30 0.32 0.32 0.32 0.30 0.30 0.28 0.26 0.24 0.22 0.20 0.20 0.20 0.22 0.22 0.22 0.22 0.22
0.60 0.58 0.56 0.56 0.54 0.52 0.50 0.50 0.50 0.48 0.48 0.46 0.44 0.44 0.42 0.42 0.42 0.42 0.42 0.42 0.42 0.42 0.42 0.42 0.42 0.42 0.42 0.42 0.42 0.42 0.42 0.42 0.42 0.42 0.42 0.40 0.38 0.38 0.38 0.38 0.38 0.38 0.38 0.36 0.34 0.34 0.32 0.32 0.30 0.30 0.30 0.30 0.32 0.32 0.32 0.30 0.28 0.26 0.24 0.22 0.20 0.20 0.20 0.20 0.20 0.20 0.22 0.20 0.20
0.58 0.56 0.56 0.54 0.52 0.52 0.50 0.50 0.50 0.48 0.46 0.46 0.44 0.42 0.42 0.42 0.40 0.42 0.42 0.42 0.42 0.42 0.42 0.42 0.44 0.44 0.44 0.42 0.42 0.44 0.44 0.44 0.42 0.42 0.42 0.40 0.40 0.40 0.40 0.38 0.38 0.38 0.38 0.36 0.36 0.34 0.32 0.32 0.30 0.30 0.30 0.32 0.32 0.32 0.30 0.28 0.26 0.24 0.22 0.20 0.20 0.20 0.20 0.20 0.20 0.20 0.20 0.20 0.20
0.56 0.56 0.54 0.52 0.52 0.52 0.50 0.50 0.50 0.48 0.46 0.44 0.44 0.42 0.42 0.42 0.42 0.42 0.42 0.42 0.42 0.44 0.44 0.44 0.44 0.44 0.44 0.44 0.44 0.44 0.44 0.44 0.42 0.42 0.42 0.42 0.40 0.40 0.40 0.40 0.38 0.38 0.38 0.38 0.36 0.34 0.32 0.32 0.32 0.32 0.32 0.32 0.32 0.30 0.28 0.26 0.24 0.22 0.22 0.20 0.20 0.20 0.20 0.18 0.18 0.20 0.20 0.20 0.20
0.56 0.54 0.52 0.52 0.52 0.52 0.50 0.50 0.50 0.48 0.46 0.44 0.44 0.44 0.42 0.42 0.42 0.42 0.44 0.44 0.44 0.44 0.44 0.44 0.44 0.44 0.44 0.44 0.44 0.44 0.44 0.44 0.44 0.44 0.42 0.42 0.40 0.40 0.40 0.40 0.40 0.40 0.38 0.38 0.36 0.36 0.34 0.32 0.32 0.32 0.30 0.30 0.28 0.28 0.26 0.24 0.22 0.22 0.20 0.20 0.20 0.18 0.18 0.18 0.18 0.18 0.20 0.20 0.20
0.54 0.52 0.52 0.52 0.52 0.52 0.50 0.50 0.50 0.48 0.46 0.46 0.46 0.44 0.44 0.44 0.44 0.44 0.44 0.46 0.46 0.46 0.46 0.46 0.46 0.44 0.44 0.44 0.44 0.46 0.46 0.44 0.44 0.44 0.44 0.42 0.42 0.40 0.40 0.40 0.40 0.40 0.40 0.38 0.36 0.36 0.34 0.32 0.32 0.30 0.30 0.28 0.26 0.26 0.26 0.24 0.22 0.22 0.20 0.20 0.18 0.18 0.18 0.16 0.18 0.18 0.18 0.20 0.20
0.54 0.52 0.54 0.54 0.52 0.52 0.50 0.50 0.48 0.48 0.48 0.46 0.46 0.46 0.44 0.44 0.44 0.44 0.46 0.46 0.46 0.46 0.46 0.46 0.46 0.46 0.46 0.46 0.46 0.46 0.46 0.46 0.44 0.44 0.42 0.42 0.42 0.42 0.42 0.42 0.40 0.40 0.40 0.38 0.36 0.36 0.34 0.32 0.30 0.30 0.28 0.26 0.26 0.24 0.24 0.24 0.22 0.22 0.20 0.18 0.18 0.16 0.16 0.16 0.18 0.18 0.18 0.20 0.20
0.54 0.54 0.54 0.54 0.52 0.50 0.48 0.48 0.48 0.48 0.48 0.46 0.46 0.46 0.44 0.44 0.44 0.46 0.46 0.46 0.46 0.46 0.46 0.46 0.46 0.46 0.46 0.46 0.46 0.46 0.46 0.44 0.44 0.42 0.42 0.42 0.42 0.42 0.42 0.42 0.40 0.40 0.38 0.38 0.36 0.34 0.32 0.30 0.30 0.28 0.26 0.26 0.24 0.24 0.24 0.24 0.22 0.20 0.20 0.18 0.16 0.16 0.16 0.16 0.18 0.18 0.20 0.20 0.20
0.54 0.54 0.54 0.52 0.50 0.50 0.50 0.48 0.48 0.48 0.48 0.48 0.46 0.46 0.46 0.46 0.46 0.46 0.46 0.46 0.46 0.44 0.44 0.44 0.46 0.46 0.46 0.46 0.46 0.46 0.46 0.44 0.44 0.42 0.42 0.42 0.42 0.44 0.44 0.42 0.40 0.40 0.38 0.36 0.34 0.32 0.32 0.30 0.28 0.28 0.26 0.24 0.24 0.24 0.22 0.22 0.20 0.20 0.18 0.16 0.16 0.16 0.16 0.16 0.18 0.18 0.20 0.20 0.20
0.54 0.54 0.52 0.52 0.50 0.50 0.50 0.50 0.50 0.48 0.48 0.48 0.48 0.48 0.48 0.46 0.46 0.46 0.46 0.46 0.44 0.44 0.44 0.44 0.44 0.46 0.46 0.46 0.46 0.46 0.46 0.44 0.44 0.44 0.42 0.42 0.44 0.44 0.44 0.42 0.40 0.38 0.36 0.34 0.32 0.32 0.30 0.28 0.28 0.26 0.24 0.24 0.22 0.22 0.20 0.20 0.18 0.18 0.16 0.16 0.14 0.14 0.14 0.16 0.16 0.18 0.18 0.20 0.20
0.52 0.52 0.52 0.52 0.52 0.50 0.50 0.50 0.50 0.50 0.48 0.48 0.48 0.48 0.48 0.48 0.46 0.46 0.46 0.44 0.44 0.44 0.44 0.44 0.44 0.46 0.46 0.46 0.46 0.46 0.46 0.44 0.44 0.42 0.44 0.44 0.44 0.44 0.42 0.42 0.40 0.36 0.34 0.32 0.32 0.30 0.28 0.28 0.26 0.24 0.24 0.22 0.22 0.20 0.18 0.18 0.16 0.16 0.14 0.14 0.14 0.14 0.14 0.16 0.16 0.18 0.18 0.20 0.20
0.52 0.50 0.50 0.52 0.50 0.50 0.50 0.50 0.50 0.50 0.50 0.50 0.48 0.48 0.48 0.48 0.46 0.46 0.44 0.44 0.44 0.44 0.44 0.44 0.44 0.46 0.46 0.46 0.46 0.46 0.44 0.42 0.42 0.42 0.44 0.44 0.44 0.42 0.40 0.40 0.38 0.36 0.34 0.32 0.30 0.28 0.28 0.26 0.24 0.24 0.22 0.22 0.20 0.18 0.16 0.16 0.14 0.14 0.12 0.14 0.14 0.14 0.16 0.16 0.18 0.18 0.20 0.20 0.20
0.50 0.50 0.50 0.50 0.50 0.50 0.50 0.50 0.52 0.52 0.50 0.50 0.48 0.48 0.48 0.46 0.44 0.44 0.42 0.42 0.44 0.44 0.44 0.44 0.46 0.46 0.46 0.46 0.46 0.44 0.44 0.42 0.42 0.42 0.42 0.42 0.42 0.40 0.38 0.38 0.34 0.34 0.32 0.30 0.28 0.28 0.26 0.24 0.22 0.22 0.22 0.20 0.18 0.18 0.16 0.14 0.12 0.12 0.12 0.14 0.16 0.16 0.16 0.18 0.18 0.18 0.20 0.20 0.20
0.50 0.50 0.50 0.50 0.50 0.50 0.52 0.52 0.52 0.50 0.48 0.48 0.46 0.46 0.44 0.44 0.44 0.42 0.42 0.42 0.44 0.46 0.46 0.46 0.46 0.46 0.46 0.46 0.44 0.44 0.42 0.42 0.40 0.42 0.42 0.40 0.40 0.38 0.36 0.36 0.34 0.32 0.32 0.30 0.28 0.26 0.24 0.22 0.22 0.20 0.20 0.18 0.18 0.16 0.14 0.14 0.14 0.14 0.14 0.16 0.16 0.18 0.18 0.18 0.20 0.20 0.20 0.20 0.20
0.50 0.52 0.52 0.54 0.52 0.52 0.52 0.52 0.50 0.48 0.46 0.46 0.44 0.42 0.42 0.42 0.42 0.42 0.42 0.44 0.46 0.48 0.48 0.46 0.46 0.44 0.44 0.44 0.44 0.42 0.42 0.40 0.40 0.40 0.40 0.38 0.38 0.36 0.36 0.34 0.32 0.30 0.30 0.28 0.28 0.24 0.22 0.22 0.20 0.20 0.18 0.18 0.16 0.14 0.14 0.14 0.14 0.14 0.16 0.16 0.18 0.18 0.18 0.20 0.20 0.20 0.20 0.20 0.20
0.52 0.54 0.54 0.56 0.54 0.54 0.52 0.50 0.48 0.46 0.44 0.44 0.42 0.40 0.40 0.40 0.40 0.42 0.42 0.44 0.46 0.48 0.46 0.46 0.44 0.44 0.44 0.42 0.42 0.42 0.40 0.40 0.38 0.38 0.38 0.38 0.36 0.36 0.34 0.34 0.32 0.30 0.28 0.28 0.24 0.24 0.22 0.20 0.20 0.18 0.18 0.16 0.14 0.14 0.14 0.14 0.14 0.14 0.16 0.16 0.18 0.18 0.18 0.18 0.18 0.18 0.20 0.20 0.20
0.56 0.56 0.56 0.54 0.52 0.50 0.48 0.48 0.46 0.44 0.42 0.42 0.40 0.40 0.38 0.38 0.38 0.40 0.42 0.44 0.46 0.46 0.46 0.46 0.44 0.44 0.42 0.42 0.40 0.40 0.40 0.38 0.38 0.36 0.36 0.36 0.36 0.34 0.34 0.32 0.30 0.28 0.28 0.26 0.24 0.22 0.20 0.20 0.18 0.16 0.16 0.14 0.14 0.14 0.14 0.14 0.16 0.16 0.16 0.16 0.18 0.18 0.18 0.18 0.18 0.18 0.20 0.20 0.20
0.56 0.56 0.54 0.52 0.50 0.48 0.46 0.46 0.44 0.44 0.42 0.42 0.40 0.38 0.38 0.36 0.36 0.38 0.40 0.44 0.44 0.46 0.46 0.44 0.44 0.44 0.42 0.42 0.40 0.38 0.38 0.38 0.36 0.36 0.36 0.34 0.34 0.34 0.32 0.32 0.30 0.28 0.26 0.24 0.22 0.20 0.20 0.18 0.16 0.16 0.14 0.14 0.14 0.14 0.14 0.16 0.16 0.16 0.16 0.18 0.18 0.18 0.18 0.18 0.18 0.20 0.20 0.20 0.20
0.54 0.52 0.50 0.48 0.48 0.46 0.46 0.44 0.44 0.42 0.40 0.40 0.38 0.38 0.36 0.36 0.36 0.38 0.40 0.42 0.44 0.44 0.44 0.44 0.44 0.42 0.42 0.40 0.40 0.38 0.36 0.36 0.36 0.34 0.34 0.34 0.32 0.32 0.30 0.30 0.28 0.26 0.24 0.22 0.20 0.20 0.18 0.18 0.16 0.16 0.14 0.14 0.14 0.14 0.16 0.16 0.16 0.16 0.16 0.18 0.18 0.18 0.18 0.18 0.18 0.20 0.20 0.20 0.20
0.52 0.50 0.48 0.46 0.46 0.46 0.44 0.44 0.42 0.40 0.38 0.38 0.36 0.36 0.36 0.36 0.38 0.40 0.40 0.42 0.42 0.42 0.42 0.42 0.42 0.40 0.40 0.38 0.38 0.36 0.36 0.34 0.34 0.34 0.34 0.32 0.32 0.30 0.30 0.28 0.28 0.24 0.22 0.20 0.20 0.18 0.18 0.18 0.16 0.16 0.14 0.14 0.14 0.14 0.16 0.16 0.16 0.16 0.16 0.16 0.18 0.18 0.18 0.18 0.18 0.18 0.20 0.20 0.20
0.50 0.48 0.48 0.46 0.46 0.44 0.44 0.40 0.38 0.38 0.36 0.36 0.36 0.36 0.38 0.38 0.38 0.40 0.40 0.42 0.42 0.42 0.40 0.40 0.40 0.38 0.36 0.36 0.34 0.34 0.34 0.34 0.34 0.32 0.32 0.32 0.32 0.30 0.28 0.26 0.24 0.24 0.22 0.20 0.18 0.18 0.18 0.18 0.16 0.16 0.14 0.14 0.14 0.14 0.16 0.16 0.16 0.16 0.16 0.16 0.16 0.16 0.18 0.18 0.18 0.18 0.20 0.20 0.20
0.48 0.48 0.46 0.46 0.44 0.44 0.40 0.38 0.36 0.36 0.36 0.36 0.36 0.38 0.38 0.38 0.38 0.38 0.40 0.40 0.40 0.40 0.40 0.38 0.36 0.36 0.36 0.34 0.34 0.34 0.34 0.34 0.32 0.32 0.30 0.30 0.30 0.30 0.28 0.24 0.22 0.22 0.22 0.20 0.18 0.18 0.18 0.16 0.16 0.14 0.14 0.14 0.14 0.14 0.16 0.16 0.16 0.16 0.16 0.16 0.16 0.16 0.18 0.18 0.18 0.18 0.18 0.20 0.20
0.48 0.48 0.46 0.44 0.42 0.40 0.38 0.36 0.36 0.36 0.36 0.36 0.36 0.36 0.36 0.36 0.36 0.38 0.40 0.40 0.40 0.40 0.38 0.36 0.36 0.34 0.34 0.34 0.32 0.32 0.32 0.32 0.32 0.30 0.30 0.30 0.28 0.28 0.26 0.24 0.22 0.22 0.22 0.20 0.20 0.18 0.18 0.16 0.16 0.14 0.14 0.14 0.14 0.14 0.16 0.16 0.16 0.16 0.16 0.16 0.16 0.16 0.16 0.18 0.18 0.18 0.18 0.20 0.20
0.48 0.46 0.44 0.42 0.40 0.40 0.38 0.38 0.38 0.38 0.38 0.38 0.36 0.36 0.36 0.36 0.36 0.38 0.40 0.40 0.40 0.40 0.38 0.36 0.34 0.34 0.34 0.32 0.32 0.32 0.32 0.32 0.30 0.30 0.30 0.28 0.28 0.26 0.24 0.22 0.22 0.22 0.22 0.20 0.20 0.18 0.18 0.16 0.16 0.14 0.14 0.14 0.14 0.14 0.16 0.16 0.16 0.16 0.14 0.14 0.16 0.16 0.16 0.18 0.18 0.18 0.18 0.20 0.20
0.46 0.44 0.42 0.42 0.40 0.40 0.40 0.38 0.38 0.38 0.38 0.36 0.36 0.36 0.36 0.36 0.38 0.38 0.40 0.40 0.40 0.38 0.36 0.36 0.34 0.32 0.32 0.32 0.30 0.30 0.30 0.30 0.30 0.30 0.28 0.28 0.26 0.24 0.24 0.22 0.22 0.22 0.22 0.22 0.20 0.18 0.18 0.16 0.16 0.14 0.14 0.14 0.14 0.16 0.16 0.16 0.14 0.14 0.14 0.14 0.14 0.16 0.16 0.18 0.18 0.18 0.18 0.20 0.20
Wind_Speed
22 23 24 24 25 26 26 27 27 27 27 27 26 26 27 27 27 28 28 28 27 27 28 29 29 30 31 32 33 34 35 36 36 37 37 37 37 37 36 37 37 37 38 39 39 40 40 40 40 40 40 40 40 40 40 41 41 42 43 44 44 44 44 44 44 45 45 46 47
22 23 24 25 26 26 27 27 27 27 27 27 27 27 27 27 28 28 28 28 28 28 28 29 30 31 32 33 34 35 36 36 37 37 37 37 37 37 37 37 37 38 39 39 40 41 41 41 41 41 41 41 40 40 40 41 42 43 43 44 44 44 44 44 45 45 46 46 47
22 23 25 26 26 27 27 27 27 27 27 27 27 27 28 28 28 28 28 28 28 28 29 30 31 32 33 34 35 36 36 37 37 37 37 37 37 37 37 37 38 38 39 40 40 41 41 42 41 41 41 41 41 41 41 42 43 43 44 44 45 45 45 45 45 46 46 47 47
22 23 25 26 27 27 27 27 27 28 28 28 28 28 28 28 29 29 28 28 29 29 30 31 32 33 34 35 36 36 36 37 37 37 37 36 36 36 37 37 38 39 40 40 41 41 42 42 42 41 41 41 41 41 42 42 43 44 44 44 44 44 45 45 46 46 47 47 47
22 24 25 26 27 28 28 28 28 28 28 28 28 28 29 29 29 29 29 29 29 30 30 32 33 34 35 35 36 36 36 36 36 36 36 36 36 37 37 38 38 39 40 40 41 41 42 42 42 41 41 41 41 42 42 43 44 44 44 44 44 44 45 46 46 47 47 47 48
24 25 26 27 28 29 29 29 29 29 28 28 28 28 29 29 29 29 29 29 30 30 31 32 33 34 35 35 35 35 35 35 35 36 36 36 36 37 37 38 39 40 40 41 41 42 42 42 41 41 41 41 41 42 43 44 44 44 44 44 44 45 45 46 46 47 47 48 48
24 26 27 28 29 29 29 29 29 29 29 29 29 29 29 29 30 30 30 30 31 31 32 32 33 34 34 35 35 35 35 35 35 35 36 36 36 37 38 39 39 40 41 41 42 42 42 42 41 41 41 41 41 42 43 44 44 44 44 44 45 45 45 46 46 47 47 48 49
25 26 27 28 29 29 29 29 29 29 29 29 29 29 29 30 30 30 30 31 31 31 32 32 33 33 34 34 34 35 35 35 35 35 36 36 37 38 38 39 40 40 41 42 42 42 42 42 41 40 40 41 41 42 43 43 43 44 44 45 45 45 45 45 46 47 47 48 48
26 27 28 28 29 29 29 29 29 29 30 30 29 29 29 30 30 30 30 30 31 31 32 32 33 33 34 34 34 35 35 35 35 35 36 37 37 38 39 40 40 41 42 42 43 42 42 41 40 40 41 41 42 42 43 43 43 44 44 45 45 45 45 46 46 46 47 48 48
27 28 28 29 29 29 30 30 30 30 30 30 30 30 30 30 30 30 30 30 31 32 32 33 33 34 34 34 35 35 35 35 35 36 37 37 38 39 40 40 41 42 42 43 43 42 42 41 41 41 42 42 42 43 44 44 44 44 44 44 44 45 45 46 46 46 47 47 48
29 29 29 29 29 30 30 30 30 31 31 30 30 30 31 31 30 30 30 31 32 32 33 33 34 34 34 35 35 35 35 35 36 36 37 38 39 40 40 41 42 42 43 43 43 42 42 41 42 42 43 43 43 44 44 44 44 44 44 44 44 45 45 46 46 47 47 48 48
30 30 29 29 30 30 30 31 31 31 31 31 31 31 31 31 31 30 30 31 32 33 33 34 34 34 35 35 35 35 36 36 36 37 38 39 40 41 41 42 43 43 43 43 43 42 42 42 42 43 43 44 44 44 44 44 44 44 44 44 44 45 46 46 47 47 47 48 48
30 30 30 30 30 30 30 31 31 31 32 32 32 32 32 32 31 31 31 31 32 33 33 34 34 34 35 35 36 36 36 36 37 38 39 40 41 42 42 43 43 43 43 43 43 42 42 43 43 44 44 44 44 44 44 43 43 43 44 44 45 45 46 46 47 47 47 47 47
30 30 30 30 30 30 30 31 31 32 32 33 33 33 32 32 31 31 31 32 32 33 33 34 34 35 35 35 36 36 36 37 37 38 40 41 41 42 43 43 43 43 43 43 43 43 43 43 43 44 44 44 44 44 43 43 43 43 44 44 45 46 46 46 46 47 47 47 46
30 30 30 30 30 30 31 31 32 32 33 33 33 33 32 32 32 32 32 32 33 33 34 34 34 34 35 35 36 36 37 37 38 39 40 41 42 43 43 43 43 43 43 43 43 43 43 43 43 43 44 44 44 43 43 43 43 43 44 44 45 45 46 46 46 46 46 46 45
31 30 30 30 30 31 31 32 32 32 33 33 32 32 32 32 32 32 32 32 33 33 34 34 34 34 35 35 36 37 37 38 39 40 41 42 42 43 43 43 43 43 43 43 43 43 42 42 43 43 43 44 44 43 43 43 43 43 44 44 45 45 45 45 46 46 45 45 44
31 31 31 31 31 31 32 32 32 32 32 32 32 32 32 32 32 32 33 33 33 34 34 34 34 35 35 36 37 37 38 38 39 40 41 42 43 43 43 43 43 43 43 43 42 42 42 43 43 43 43 43 43 43 43 43 43 43 44 44 44 45 45 45 45 45 44 43 42
31 31 31 31 31 32 32 32 32 32 32 31 31 31 32 32 32 33 33 33 34 34 34 35 35 35 36 37 37 38 38 39 40 41 42 42 42 43 43 43 43 43 42 42 42 42 42 43 43 43 43 43 43 43 42 42 43 43 44 44 44 45 45 45 45 44 43 42 41
31 31 31 31 31 32 32 32 32 32 32 31 31 32 32 33 33 34 34 34 34 35 35 36 36 36 37 37 37 38 38 39 41 41 42 42 42 42 43 43 43 43 42 42 42 43 43 43 43 43 43 43 42 42 42 42 43 43 44 44 45 45 45 45 44 43 42 40 39
31 31 31 31 31 32 32 32 32 32 32 32 32 32 33 34 34 35 35 35 36 36 36 36 37 37 37 37 38 38 39 40 41 41 42 42 42 42 42 43 43 43 43 43 43 43 43 43 43 42 42 42 42 42 42 43 43 44 44 44 44 45 44 44 43 42 40 39 38
31 31 31 31 31 32 32 33 33 32 32 32 33 33 34 35 35 35 36 36 37 37 37 37 37 38 38 38 38 39 40 41 41 41 41 41 42 42 43 43 43 43 43 43 43 43 43 43 42 42 42 42 42 42 42 43 43 44 44 44 44 44 44 43 42 40 39 38 37
31 31 31 31 32 32 33 33 33 33 33 33 33 34 34 35 35 36 37 37 38 38 38 38 38 38 38 38 39 40 41 41 41 41 41 41 42 43 43 43 43 43 43 43 43 43 43 42 42 42 42 42 42 42 43 43 43 44 44 44 44 44 43 42 40 39 37 37 36
31 31 31 31 32 32 33 33 33 33 33 33 33 34 34 35 36 37 38 38 38 39 39 38 38 38 38 39 40 40 41 40 40 41 41 42 43 43 44 44 43 43 44 43 43 43 42 42 42 42 42 42 42 42 43 43 43 44 44 44 44 43 42 41 39 37 36 36 35
31 31 32 32 32 33 33 33 32 33 33 33 34 35 35 36 38 39 39 39 39 39 39 38 38 38 38 39 40 40 40 41 41 42 42 43 44 44 44 44 44 43 43 43 43 42 42 42 42 42 42 42 42 42 43 43 43 43 44 43 43 42 41 39 37 36 35 35 34
32 32 33 33 33 33 32 32 33 33 33 34 35 36 37 37 39 40 41 41 40 40 39 39 38 39 39 40 40 40 40 41 42 42 43 44 44 44 44 44 43 43 43 43 43 42 42 42 42 42 42 42 42 43 43 43 43 43 43 42 41 40 39 37 36 35 34 34 33
33 33 33 33 33 33 32 32 32 33 34 36 36 37 37 38 39 40 41 42 41 40 39 39 39 39 40 40 40 40 41 41 42 43 43 44 44 44 44 43 43 43 43 43 43 43 42 42 42 42 42 42 42 42 42 42 42 42 41 41 40 38 37 36 35 34 34 33 32
33 33 33 33 33 32 32 32 32 34 36 37 37 38 38 39 40 41 42 42 41 40 39 39 39 40 40 40 40 41 41 41 42 43 43 44 44 43 43 43 43 43 43 43 43 43 42 42 42 42 42 42 42 42 42 42 41 41 40 39 38 36 35 35 34 34 33 32 31
33 33 33 33 33 32 32 31 33 34 36 37 37 38 38 39 40 41 42 42 41 40 39 39 39 40 40 40 40 40 40 41 42 43 43 43 43 42 42 42 42 43 43 43 42 42 42 42 41 41 41 41 41 41 41 41 40 39 38 37 36 35 34 33 33 33 32 31 31
33 33 33 33 33 32 32 33 34 35 36 36 37 38 38 39 40 41 41 41 40 40 39 39 39 39 39 39 39 40 40 41 42 43 43 43 42 42 42 42 42 42 42 42 42 41 41 41 41 41 41 41 41 40 40 39 38 37 36 35 34 33 33 32 32 31 31 30 30
33 33 33 34 34 34 34 34 35 35 36 36 37 38 39 40 40 41 41 40 40 39 39 39 39 39 39 39 39 40 41 42 42 42 42 42 41 41 42 42 42 42 42 42 41 41 40 40 40 40 40 40 40 39 38 38 36 35 34 34 33 32 32 32 31 31 30 29 29
34 34 34 35 35 35 35 35 36 36 36 37 38 39 40 40 40 40 40 40 40 39 39 39 39 39 39 39 40 40 41 42 42 42 42 41 41 42 42 42 41 41 41 40 40 40 40 40 40 40 40 40 39 38 37 36 35 34 33 32 32 31 31 31 30 30 29 29 29
34 34 35 35 36 35 35 36 36 37 37 38 39 40 40 40 40 40 40 40 39 39 39 39 39 39 39 40 40 41 41 42 42 42 42 42 42 42 41 41 40 40 40 39 39 39 39 39 39 39 39 38 37 36 35 34 33 32 32 31 31 30 30 29 29 29 29 28 28
34 35 35 35 35 35 36 36 37 38 38 39 39 40 40 40 40 40 40 39 39 39 39 39 39 39 40 40 41 41 41 42 42 42 42 42 42 41 41 40 39 39 39 39 38 38 38 38 38 38 37 36 35 34 33 32 31 31 31 30 30 29 29 29 28 28 28 27 27
35 35 35 35 35 35 36 37 38 38 39 40 40 40 40 40 40 40 39 39 39 39 39 39 39 40 40 40 40 41 41 42 42 43 42 42 41 40 39 39 38 38 38 38 38 38 38 37 37 36 35 34 33 32 31 30 30 30 30 29 29 28 28 28 27 27 27 26 26
35 35 35 35 36 36 37 38 39 39 40 40 40 40 40 40 40 40 39 39 39 39 39 39 39 40 40 40 41 41 42 42 43 42 42 41 40 39 38 38 37 37 37 37 37 37 37 36 35 34 33 32 31 30 29 29 29 29 29 28 28 28 27 27 26 26 25 25 25
35 35 35 36 37 38 38 39 39 40 40 40 40 40 40 40 40 39 39 39 39 39 39 39 40 40 40 41 42 42 42 42 42 41 41 40 39 38 38 37 36 36 36 37 36 36 35 34 33 32 31 30 29 28 28 28 28 28 28 27 27 27 26 26 25 25 25 24 24
35 35 36 37 38 39 39 40 40 40 40 40 40 40 40 40 40 39 39 39 39 39 39 39 40 40 40 41 42 42 42 42 41 40 40 39 38 38 37 37 36 35 35 35 35 34 33 32 31 30 29 28 28 27 27 27 27 27 26 26 26 26 25 25 24 24 24 23 23
36 36 37 38 39 39 40 40 40 40 40 40 40 40 39 39 39 39 39 39 39 39 39 39 40 40 41 42 42 42 42 41 40 39 39 38 38 37 36 36 35 35 34 33 33 32 31 30 29 29 28 27 26 26 26 26 26 26 25 25 25 25 25 24 24 23 23 23 23
37 38 38 39 39 40 40 40 40 40 40 40 39 39 39 39 39 39 39 39 39 39 39 40 40 41 41 42 42 41 41 40 39 38 38 37 37 36 35 35 35 34 33 31 31 30 29 28 28 27 26 26 25 25 25 25 25 25 25 25 24 24 24 23 23 23 22 22 23
38 39 39 39 39 40 40 40 40 40 39 39 39 39 39 39 39 39 40 39 39 39 39 40 41 41 41 41 41 40 39 39 38 37 37 36 36 35 34 34 33 32 31 29 29 28 27 27 26 25 25 24 24 24 24 24 24 24 24 24 24 24 23 23 22 22 22 22 22
39 39 39 40 40 40 40 40 40 40 39 39 39 39 39 39 39 39 39 39 39 39 40 40 41 41 41 41 40 39 38 38 37 36 36 35 35 34 33 33 32 30 29 27 27 26 26 25 24 24 23 23 23 23 23 23 23 23 23 23 23 23 23 22 22 22 22 22 22
Wind_Direction
308 308 307 306 305 305 305 305 305 304 303 303 304 306 308 309 309 308 308 307 306 305 305 304 304 303 303 303 304 305 306 307 307 308 308 308 308 308 308 308 309 310 310 311 311 311 311 311 311 311 311 311 311 311 310 310 311 311 312 313 314 314 315 315 315 316 316 315 315
309 309 307 306 306 306 306 305 305 304 303 303 304 306 308 309 309 308 308 307 306 305 305 304 304 303 303 303 304 305 306 307 307 308 308 308 308 308 308 309 309 310 311 311 311 311 311 311 311 310 310 310 311 311 310 310 311 312 313 314 315 315 316 316 316 315 315 315 315
310 309 307 306 306 306 306 305 304 303 302 302 303 306 308 309 309 308 307 307 306 305 304 303 303 303 303 304 304 305 306 306 307 307 308 308 308 309 309 309 310 310 311 311 311 311 311 311 310 310 310 310 310 310 310 311 311 313 314 315 315 316 316 316 315 315 315 315 314
310 308 306 305 306 306 305 304 303 302 302 302 303 306 308 309 309 309 308 307 305 304 303 302 302 303 304 304 304 305 306 306 307 307 308 308 309 309 309 310 310 311 311 312 312 311 311 310 310 309 309 309 309 310 310 311 312 313 314 315 315 316 316 316 315 315 315 315 315
309 307 305 304 304 305 305 304 303 302 302 302 304 306 308 309 309 309 307 306 304 302 301 301 302 303 304 305 305 305 306 306 307 307 308 308 309 310 310 311 311 311 312 312 312 311 311 310 309 308 308 308 309 309 310 311 312 313 314 315 316 316 316 316 316 315 315 315 315
307 307 306 304 304 304 304 304 303 303 302 303 304 305 307 309 309 308 306 304 303 302 301 302 303 304 305 306 306 306 306 307 307 308 308 309 310 311 311 311 311 312 312 312 311 311 310 309 309 308 308 308 309 309 310 312 313 314 315 316 316 316 316 316 315 315 315 315 315
304 305 305 304 304 304 304 304 303 303 302 302 303 305 307 308 309 307 306 304 303 303 303 304 305 305 306 307 307 307 307 308 308 309 309 310 311 311 311 311 311 312 311 311 311 310 309 308 308 307 308 308 309 310 312 313 314 315 316 316 316 316 316 315 315 315 315 315 315
299 301 303 304 304 305 305 304 303 303 302 302 302 304 306 308 308 307 306 306 305 305 305 306 306 307 307 308 308 308 308 309 309 310 310 310 311 311 311 311 311 311 311 310 310 309 308 308 308 308 309 309 310 311 312 314 314 315 315 315 315 315 315 315 315 315 315 315 316
298 301 303 305 306 306 306 305 304 303 302 301 302 304 305 307 307 307 307 307 307 307 307 307 308 308 308 308 309 309 309 309 310 310 310 310 311 311 311 311 311 311 310 309 309 308 308 308 308 309 309 310 311 312 313 314 314 315 315 315 315 315 315 315 315 316 316 316 316
301 304 306 307 308 308 307 306 305 303 302 301 302 303 305 306 306 306 306 307 308 308 308 308 308 308 309 309 309 309 310 310 310 310 310 311 311 311 311 311 310 310 309 308 308 308 308 308 309 309 310 311 311 312 313 314 314 315 315 315 315 315 316 316 316 317 317 317 317
303 306 308 309 309 309 308 307 306 304 303 302 302 303 305 306 306 306 306 307 308 309 309 309 309 309 308 309 309 310 310 310 310 310 311 311 311 311 311 311 310 309 308 308 308 308 308 309 309 310 310 311 312 312 313 314 314 315 315 316 316 316 317 317 317 317 318 317 317
303 306 308 309 309 309 309 307 306 305 304 304 304 305 306 306 306 305 305 306 308 309 309 309 309 308 308 309 309 310 310 310 310 310 311 311 312 311 311 310 309 309 308 308 308 308 309 309 310 310 311 311 312 313 313 314 315 315 316 316 317 317 317 318 318 318 317 317 316
303 306 308 308 309 309 308 307 307 306 306 306 306 306 306 306 306 305 305 306 307 308 309 309 309 309 309 309 309 310 310 310 310 310 311 311 311 311 311 310 309 308 308 308 308 309 309 310 310 311 311 312 312 313 314 315 315 316 316 317 317 317 318 318 318 318 317 316 315
305 306 307 307 308 308 308 307 307 307 307 307 307 307 307 306 306 305 305 305 306 308 309 309 309 309 309 309 309 310 310 310 310 310 311 311 311 310 310 309 309 309 309 309 309 309 310 310 310 311 312 312 313 314 315 316 316 317 317 317 317 317 318 318 318 318 317 316 315
306 306 307 307 307 307 307 307 307 308 308 308 308 308 307 306 305 305 305 305 306 307 308 309 309 309 309 309 310 310 310 310 310 310 310 310 310 310 309 309 309 309 309 309 309 309 310 310 311 312 312 313 314 315 316 316 317 317 317 317 317 318 318 318 318 318 317 316 315
306 306 306 306 306 306 307 308 308 309 309 309 308 308 307 306 306 306 306 306 306 307 308 308 308 309 309 309 310 310 310 310 310 310 310 310 310 309 309 309 308 308 308 309 309 310 310 311 312 313 313 314 315 315 316 317 317 317 317 318 318 318 319 318 318 317 316 315 314
306 306 305 305 305 306 307 309 309 310 310 309 308 308 307 307 307 307 306 306 307 307 307 308 308 308 308 309 309 309 309 309 310 310 310 310 309 309 309 308 308 308 308 309 309 310 311 312 313 314 314 315 315 316 316 317 317 317 318 318 319 319 319 318 317 316 315 314 313
305 305 305 305 305 307 308 309 310 310 309 309 308 308 307 307 307 307 307 307 307 307 307 307 307 307 308 308 309 309 309 310 310 310 310 310 309 309 308 308 308 308 308 309 310 311 312 313 314 314 315 315 316 316 316 317 317 318 318 319 319 319 318 317 316 315 314 313 313
305 304 304 305 306 308 309 310 310 309 309 308 308 308 308 308 308 308 308 307 307 307 307 307 307 307 308 308 309 310 310 310 310 310 310 310 309 309 308 308 308 308 308 309 310 311 312 314 315 315 315 316 316 316 317 317 318 318 319 319 319 318 318 317 316 315 314 313 312
304 304 305 306 308 309 310 310 309 309 308 308 308 308 309 309 308 308 307 307 306 307 307 307 307 308 308 309 310 310 311 311 311 311 310 310 310 309 309 308 308 308 308 309 310 312 313 314 315 316 316 316 316 317 317 318 318 319 319 319 318 318 317 316 315 314 313 313 312
304 306 307 308 309 309 309 309 308 308 307 308 308 308 308 307 307 306 306 306 306 306 307 307 307 308 309 310 310 311 311 311 312 311 311 311 310 309 309 308 308 308 308 309 311 313 314 315 316 316 316 316 316 317 317 318 319 319 319 318 318 317 316 316 315 314 313 313 312
306 307 309 309 309 309 308 308 307 307 307 307 307 307 306 306 305 305 306 306 306 307 307 307 307 308 309 310 311 311 311 312 312 312 312 311 310 310 309 308 308 308 309 311 313 314 315 316 316 316 316 316 317 317 318 318 318 318 318 318 317 317 316 315 315 314 313 313 312
308 309 309 309 308 308 307 307 307 307 307 307 307 307 307 307 307 307 307 307 308 308 307 308 308 309 310 310 311 311 312 312 312 312 312 311 310 310 309 309 309 310 311 312 314 315 316 317 317 317 317 317 317 317 318 318 318 318 317 317 317 316 316 316 315 315 314 313 313
309 309 308 308 307 307 306 307 307 308 309 310 310 311 310 310 309 309 309 309 308 308 308 309 309 310 310 310 311 311 312 312 312 311 311 310 310 309 309 309 310 311 313 314 316 317 318 318 318 318 318 318 318 318 318 318 317 317 317 317 317 316 316 316 315 315 314 313 313
308 308 307 307 306 306 306 307 309 310 311 312 312 312 311 310 309 308 308 308 308 309 309 309 310 310 310 310 310 310 311 311 310 310 310 310 309 309 309 310 311 312 314 316 317 318 319 318 318 318 318 318 318 318 318 318 317 317 317 317 316 316 316 316 316 315 314 313 313
308 307 306 306 305 306 307 308 310 311 312 312 311 310 309 308 307 307 307 307 308 308 309 310 310 309 309 309 309 309 309 309 309 309 309 309 309 309 310 311 312 314 315 316 317 318 318 318 318 318 318 318 318 318 318 318 317 317 317 317 317 317 316 316 316 315 314 314 314
307 306 306 306 306 306 307 309 310 311 311 310 309 308 307 306 306 305 305 306 307 308 309 309 309 309 308 308 308 308 308 309 309 309 309 309 309 309 310 312 313 314 315 316 317 317 317 318 318 318 318 318 318 318 318 318 317 317 317 317 317 317 317 316 316 315 315 315 315
306 306 306 306 306 307 308 309 310 310 309 308 307 306 306 305 305 305 305 306 307 308 309 308 308 307 307 307 307 308 308 309 309 309 309 309 309 310 311 312 313 314 314 316 316 317 317 318 318 318 318 318 318 318 318 318 318 317 317 317 317 317 317 317 316 316 316 316 316
306 305 305 306 307 308 309 310 311 310 310 309 308 307 307 306 306 305 305 306 307 308 308 308 307 307 307 307 307 308 308 309 309 309 309 309 310 311 312 313 313 314 314 316 316 317 318 318 319 319 319 318 318 318 318 318 318 318 318 318 318 318 318 317 317 317 317 317 317
305 305 306 307 308 310 312 313 313 312 312 311 310 309 308 307 306 306 306 307 307 307 307 307 307 307 307 308 308 309 309 309 309 309 309 310 311 311 312 312 313 314 314 316 317 318 318 319 319 319 319 318 318 318 318 318 318 318 318 319 319 318 318 318 318 318 318 318 318
305 305 307 309 311 313 314 314 314 314 313 312 311 310 309 308 307 307 307 307 307 308 308 308 308 308 308 308 308 308 308 308 309 309 310 311 311 312 312 313 313 314 315 316 317 318 318 319 319 318 318 318 318 318 318 318 319 319 319 319 319 319 319 319 319 319 319 318 318
305 307 309 312 314 315 315 315 315 314 313 312 311 310 309 308 307 307 308 308 308 308 308 309 308 308 308 308 308 307 308 308 309 310 311 311 311 312 312 313 313 314 315 317 318 318 318 318 318 318 318 318 318 318 319 319 319 320 320 320 320 320 320 320 319 319 319 319 319
308 310 312 314 315 315 315 315 315 314 313 311 310 309 308 308 308 308 308 309 309 309 309 309 309 308 307 307 307 307 308 309 310 311 311 311 311 312 313 313 314 315 316 317 318 318 318 318 318 318 319 319 319 319 319 320 320 321 321 321 320 320 321 320 320 320 320 320 320
311 313 315 315 316 316 315 315 314 313 312 310 309 309 309 309 309 309 309 309 309 309 309 309 308 307 307 306 307 308 309 310 310 310 310 310 311 312 313 314 314 315 316 317 317 317 317 317 318 319 319 319 319 320 320 321 321 322 322 322 322 322 322 322 322 322 322 322 322
313 315 315 316 315 315 314 314 313 312 311 310 309 309 309 309 309 309 310 310 310 310 309 308 307 306 306 306 307 308 309 310 310 310 310 310 311 312 313 314 314 315 316 316 317 317 317 318 319 319 320 320 320 320 321 322 322 323 323 324 324 324 323 323 323 323 323 323 323
314 315 315 315 315 314 314 313 312 311 310 309 309 309 309 310 310 310 310 310 310 309 308 307 306 306 306 307 308 308 309 309 309 310 310 311 312 313 314 314 314 315 315 316 316 317 317 318 319 320 320 320 321 321 322 322 323 324 325 325 325 325 325 325 325 325 325 325 325
314 314 314 315 314 314 313 312 311 311 310 309 309 309 309 309 310 310 310 310 310 309 307 306 306 306 307 307 308 308 309 309 309 310 311 312 313 313 314 314 313 314 315 315 316 317 318 319 319 320 320 321 321 322 323 323 324 325 326 327 327 327 327 326 326 326 326 326 326
313 314 314 315 314 314 313 312 311 311 310 310 310 310 310 310 310 310 310 309 308 307 307 306 306 307 307 308 308 308 308 309 310 311 312 313 314 314 314 313 313 313 314 315 315 316 317 318 320 320 321 321 322 323 323 324 325 326 328 328 328 328 328 328 328 328 328 328 328
314 314 315 315 314 313 313 312 311 311 310 310 310 310 310 310 310 309 309 308 307 307 307 307 307 307 308 308 308 308 309 310 311 312 313 314 314 314 313 313 313 313 313 314 315 316 317 318 320 321 321 322 323 323 324 325 326 327 329 329 329 329 329 329 329 330 330 330 330
314 315 315 315 314 313 312 312 311 311 311 311 310 310 310 310 309 309 308 308 307 307 307 307 307 307 308 308 308 309 310 311 312 313 313 314 314 314 313 313 313 313 313 313 314 315 317 318 320 321 322 323 323 324 325 326 327 328 330 330 330 330 330 331 331 331 332 332 332
315 315 315 314 314 313 312 311 311 311 311 311 311 310 310 310 309 308 308 308 307 307 307 307 308 308 308 308 309 310 311 312 312 313 313 313 313 313 313 313 313 312 312 312 313 315 316 318 320 321 323 323 324 325 326 327 328 329 330 331 331 331 332 332 333 333 334 334 334